Location: Clyde
(45.1830°S, 169.3170°E)
Time: 08:08:36
(UTC+13:00)

SJ-6B - Pass Details

Date: 24 January 2019
Orbit: 511 x 582 km, 97.7° (Epoch: 20 February)

Event Time Altitude Azimuth Distance (km) Brightness Sun altitude
Rises 22:27:06 0° 171° (S) 2,669 6.8 -10.2°
Reaches altitude 10° 22:29:14 10° 175° (S) 1,775 5.9 -10.5°
Maximum altitude 22:32:59 59° 253° (WSW) 613 3.4 -11.0°
Drops below altitude 10° 22:36:44 10° 333° (NNW) 1,766 5.2 -11.5°
Sets 22:38:51 0° 337° (NNW) 2,655 6.1 -11.7°
